TimeEET,TemperatureF,Dew PointF,Humidity,Sea Level PressureIn,VisibilityMPH,Wind Direction,Wind SpeedMPH,Gust SpeedMPH,PrecipitationIn,Events,Conditions,WindDirDegrees,DateUTC
12:00 AM,57.2,42.8,59,30.12,-9999.0,WNW,9.2,-,N/A,,Clear,300,2013-01-03 22:00:00
1:00 AM,57.2,42.8,59,30.09,-9999.0,WNW,11.5,-,N/A,,Clear,300,2013-01-03 23:00:00
2:00 AM,56,43,51,30.11,6,WNW,13.8,,,,,300,2013-01-04 00:00:00
2:00 AM,55.4,42.8,63,30.09,-9999.0,WNW,13.8,-,N/A,,Clear,300,2013-01-04 00:00:00
3:00 AM,55.4,42.8,63,30.09,-9999.0,WNW,9.2,-,N/A,,Clear,290,2013-01-04 01:00:00
4:00 AM,53.6,42.8,67,30.06,-9999.0,WNW,9.2,-,N/A,,Clear,300,2013-01-04 02:00:00
5:00 AM,51.8,39.2,62,30.06,-9999.0,WNW,4.6,-,N/A,,Clear,290,2013-01-04 03:00:00
6:00 AM,53.6,39.2,58,30.09,-9999.0,NW,6.9,-,N/A,,Clear,320,2013-01-04 04:00:00
7:00 AM,51.8,39.2,62,30.09,-9999.0,NW,9.2,-,N/A,,Clear,320,2013-01-04 05:00:00
8:00 AM,57,42,46,30.11,6,NW,10.4,,,,,310,2013-01-04 06:00:00
8:00 AM,57.2,41.0,55,30.09,-9999.0,SSW,10.4,-,N/A,,Clear,210,2013-01-04 06:00:00
9:00 AM,64.4,44.6,49,30.09,-9999.0,NW,13.8,-,N/A,,Clear,310,2013-01-04 07:00:00
10:00 AM,68.0,48.2,49,30.09,-9999.0,NNW,10.4,-,N/A,,Clear,330,2013-01-04 08:00:00
11:00 AM,69.8,48.2,46,30.06,-9999.0,North,9.2,-,N/A,,Clear,350,2013-01-04 09:00:00
12:00 PM,71.6,48.2,43,30.04,-9999.0,North,11.5,-,N/A,,Clear,360,2013-01-04 10:00:00
1:00 PM,73.4,48.2,41,30.01,-9999.0,NNW,8.1,-,N/A,,Clear,340,2013-01-04 11:00:00
2:00 PM,78,48,24,29.99,6,North,9.2,,,,,0,2013-01-04 12:00:00
2:00 PM,77.0,48.2,36,29.98,-9999.0,North,9.2,-,N/A,,Clear,360,2013-01-04 12:00:00
3:00 PM,77.0,48.2,36,29.98,-9999.0,NNE,8.1,-,N/A,,Clear,20,2013-01-04 13:00:00
4:00 PM,75.2,51.8,44,29.98,-9999.0,North,11.5,-,N/A,,Clear,10,2013-01-04 14:00:00
5:00 PM,71.6,50.0,46,29.98,-9999.0,North,11.5,-,N/A,,Clear,10,2013-01-04 15:00:00
6:00 PM,66.2,44.6,46,30.01,-9999.0,NW,4.6,-,N/A,,Clear,320,2013-01-04 16:00:00
7:00 PM,64.4,42.8,45,30.01,-9999.0,WNW,6.9,-,N/A,,Clear,290,2013-01-04 17:00:00
8:00 PM,65,42,31,30.04,6,NNW,16.1,,,,,340,2013-01-04 18:00:00
8:00 PM,64.4,41.0,42,30.04,-9999.0,NNW,16.1,-,N/A,,Clear,340,2013-01-04 18:00:00
9:00 PM,60.8,41.0,48,30.01,-9999.0,West,15.0,-,N/A,,Clear,280,2013-01-04 19:00:00
10:00 PM,59.0,39.2,48,30.04,-9999.0,WNW,11.5,-,N/A,,Clear,290,2013-01-04 20:00:00
11:00 PM,57.2,41.0,55,30.04,-9999.0,WNW,9.2,-,N/A,,Clear,290,2013-01-04 21:00:00